Montrose, CO

11:14 PM MDT on July 27, 2017 (GMT -0600)
Montrose Regional

Weather History for KMTJ - May, 2014

Change the Weather History Date:

Monday, May 19, 2014

  Actual Average Record
Temperature  
Mean Temperature 72 °F 59 °F  
Max Temperature 83 °F 75 °F 87 °F (2005)
Min Temperature 61 °F 44 °F 33 °F (2017)
Degree Days  
Heating Degree Days 0 6  
Month to date heating degree days 190 170  
Since 1 July heating degree days 6086 6108  
Cooling Degree Days 7 1  
Month to date cooling degree days 14 1  
Year to date cooling degree days 14 1  
Growing Degree Days 22 (Base 50)    
Moisture  
Dew Point 12 °F    
Average Humidity 13    
Maximum Humidity 20    
Minimum Humidity 6    
Precipitation  
Precipitation 0.00 in 0.03 in 0.20 in (2015)
Month to date precipitation 0.35 0.82  
Year to date precipitation 2.48 4.04  
Sea Level Pressure  
Sea Level Pressure 29.63 in    
Wind  
Wind Speed 12 mph (SSW)    
Max Wind Speed 25 mph    
Max Gust Speed 41 mph    
Visibility 10 miles    
Events      
T = Trace of Precipitation, MM = Missing Value Source: NWS Daily Summary

Daily Weather History Graph

Daily Weather History Graph

Search for Another Location

Airport or City:

Trip Planner

Search our weather history database for the weather conditions in past years. The results will help you decide how hot, cold, wet, or windy it might be!

Date:

Astronomy

May. 19, 2014 Rise Set
Actual Time 5:56 AM MDT 8:19 PM MDT
Civil Twilight 5:26 AM MDT 8:50 PM MDT
Nautical Twilight 4:49 AM MDT 9:27 PM MDT
Astronomical Twilight 4:08 AM MDT 10:08 PM MDT
Moon 12:10 AM MDT (5/19) 10:56 AM MDT (5/19)
Length of Visible Light 15h 23m
Length of Day
14h 23m
Waning Gibbous, 70% of the Moon is Illuminated
May 19
Waning Gibbous
May 21
Last Quarter
May 28
New
Jun 5
First Quarter
Jun 12
Full

Hourly Weather History & Observations

Time (MDT) Temp. Dew Point Humidity Pressure Visibility Wind Dir Wind Speed Gust Speed Precip Events Conditions
12:53 AM 68.0 °F 8.1 °F 10% 29.60 in 10.0 mi South 12.7 mph - N/A   Clear
1:53 AM 66.0 °F 8.1 °F 10% 29.60 in 10.0 mi SSE 13.8 mph - N/A   Clear
2:53 AM 66.0 °F 8.1 °F 10% 29.62 in 10.0 mi South 13.8 mph 20.7 mph N/A   Clear
3:53 AM 66.9 °F 5.0 °F 9% 29.61 in 10.0 mi South 15.0 mph 28.8 mph N/A   Clear
4:53 AM 66.0 °F 6.1 °F 9% 29.62 in 10.0 mi South 13.8 mph 21.9 mph N/A   Clear
5:53 AM 64.9 °F 7.0 °F 10% 29.64 in 10.0 mi Variable 3.5 mph - N/A   Clear
7:53 AM 66.9 °F 16.0 °F 14% 29.68 in 10.0 mi SE 10.4 mph - N/A   Clear
8:53 AM 71.1 °F 14.0 °F 11% 29.69 in 10.0 mi SE 8.1 mph - N/A   Clear
9:53 AM 72.0 °F 15.1 °F 11% 29.69 in 10.0 mi SW 8.1 mph - N/A   Clear
10:53 AM 75.0 °F 15.1 °F 10% 29.67 in 10.0 mi WSW 9.2 mph - N/A   Clear
11:53 AM 78.1 °F 12.0 °F 8% 29.65 in 10.0 mi SSW 13.8 mph 26.5 mph N/A   Clear
12:53 PM 78.1 °F 10.9 °F 8% 29.64 in 10.0 mi SW 12.7 mph 28.8 mph N/A   Clear
1:53 PM 80.1 °F 14.0 °F 8% 29.62 in 10.0 mi South 19.6 mph 27.6 mph N/A   Clear
2:53 PM 81.0 °F 12.9 °F 8% 29.60 in 10.0 mi SSW 16.1 mph 27.6 mph N/A   Clear
3:53 PM 82.0 °F 10.9 °F 7% 29.58 in 10.0 mi SSW 18.4 mph 31.1 mph N/A   Clear
4:53 PM 82.0 °F 10.0 °F 7% 29.58 in 10.0 mi WSW 16.1 mph 29.9 mph N/A   Clear
5:53 PM 82.0 °F 10.0 °F 7% 29.58 in 10.0 mi WSW 15.0 mph - N/A   Clear
6:53 PM 79.0 °F 9.0 °F 7% 29.60 in 10.0 mi SW 9.2 mph - N/A   Clear
7:53 PM 75.9 °F 12.9 °F 9% 29.60 in 10.0 mi SSW 10.4 mph - N/A   Clear
8:53 PM 72.0 °F 14.0 °F 11% 29.61 in 10.0 mi SSW 8.1 mph - N/A   Clear
9:53 PM 62.1 °F 21.0 °F 21% 29.67 in 10.0 mi ESE 9.2 mph - N/A   Clear
10:53 PM 61.0 °F 19.9 °F 21% 29.69 in 10.0 mi ESE 9.2 mph - N/A   Clear